STARLINK-11115 [DTC] (60305 NORAD) Tracking and Keplerian Element Data

This shows tracking and keplerian element data for the satellite.

Feedback or suggestion? Click here.




ElementValue
Catalog60305
NameSTARLINK-11115 [DTC]
Epoch Orbit1317
Epoch Day286.80025305
Epoch Year2024
RAAN154.978
Inclination53.1568
Eccentricity0.0001009
Argument of Perigee65.2606
Mean Anonmoly294.8519
Mean Motion15.75015826
Decay Rate0.0004215
L11 60305U 24133E 24286.80025305 .00042150 00000+0 28046-3 0 9996
L22 60305 53.1568 154.9780 0001009 65.2606 294.8519 15.75015826 13173



Live tracking and technical data element details for STARLINK-11115 [DTC] (NORAD 60305). STARLINK-11115 [DTC] can be tracked NOW for your location showing map with azimuth and elevation plus other details from your city location.







IsCatalogInMostPopularTable: catalog: 60305, numindb: 8
Update: records affected: 1



GetName: 60305 STARLINK-11115 [DTC]

Hit Count: updated at: Tue, 03 Dec 2024 02:06:36 GMT